Content
SEND FEEDBACK

Daily
Averages
Monthly
Summary
Canada

VANCOUVER, BRITISH COLUMBIA


Home > North America > Canada > British Columbia
Elevation: 2 meters     Latitude: 49 11N     Longitude: 123 10W

WEATHER
 
SELECT A DAY
Number of Records: 249,704;   Date Range: 5/15/97 - 8/31/14
 
SHARE

PRINT THIS DATA

[ ← Previous Day ]
WEATHER ALMANAC - 9 JANUARY, 2013
[ Next Day → ]
[ °F ]   °C
Weather ElementAverageHighLow
Temperature6 °C8 °C (12:35 am)3 °C (8:35 pm)
Dewpoint2.9 °C6 °C (12:35 am)0 °C (5:55 pm)
Humidity80.5 %93 % (7:15 am)70 % (4:15 pm)
Barometer1006.1 hPa1012.2 hPa (10:15 pm)1003 hPa (4:55 am)
Wind Speed14.2 km/h27.8 km/h (1:55 am)
Wind Gust40.7 km/h (12:35 am)
Weather ElementAverage
Visibility15.9 km
Wind DirectionSSW (195.8 °)

Weather ElementTotal
Precipitation0.51 mm
Heating Degree Days12.8 (Base 18.3)
Averaged from 60 records on 9 January, 2013
WEATHER CONDITIONS BREAKOUT
WIND DIRECTION BREAKOUT
WEATHER BY HOUR - 9 JANUARY, 2013
[ °F ]   °C
Local TimeTemperatureDewpointHumidityBarometerVisibilityWind DirectionWind SpeedGust SpeedPrecipitationEventsConditions
12:35 AM8 °C6 °C87 %1004.7 hPa11.3 kmSW (220°)20.4 km/h40.7 km/h0.25 mmRainLight Rain
12:55 AM8 °C6 °C87 %1004.7 hPa12.9 kmSSW (210°)22.2 km/h35.2 km/h0.25 mmRainLight Rain
1:15 AM8 °C5 °C81 %1004.4 hPa16.1 kmSSW (210°)20.4 km/h37 km/hRainLight Rain
1:35 AM7 °C5 °C87 %1004.4 hPa16.1 kmSSW (210°)25.9 km/h37 km/hClear
1:55 AM7 °C5 °C87 %1004.1 hPa16.1 kmSSW (210°)27.8 km/h38.9 km/hClear
2:15 AM7 °C5 °C87 %1004.4 hPa16.1 kmSSW (210°)25.9 km/h33.3 km/hClear
2:35 AM7 °C5 °C87 %1004.4 hPa16.1 kmSSW (210°)18.5 km/h31.5 km/hClear
2:55 AM7 °C4 °C81 %1004.7 hPa16.1 kmSW (220°)20.4 km/h31.5 km/hScattered Clouds
3:15 AM7 °C4 °C81 %1004.7 hPa16.1 kmSW (220°)16.7 km/h31.5 km/hMostly Cloudy
3:35 AM7 °C4 °C81 %1004.4 hPa16.1 kmSSW (200°)16.7 km/h29.6 km/hMostly Cloudy
3:55 AM7 °C4 °C81 %1004.4 hPa16.1 kmSSW (210°)14.8 km/hScattered Clouds
4:15 AM7 °C4 °C81 %1004.1 hPa16.1 kmSW (220°)20.4 km/h25.9 km/hPartly Cloudy
4:35 AM7 °C4 °C81 %1003.7 hPa16.1 kmSSW (200°)18.5 km/hClear
4:55 AM7 °C4 °C81 %1003 hPa16.1 kmSouth (190°)20.4 km/h31.5 km/hClear
5:15 AM7 °C4 °C81 %1003.4 hPa16.1 kmSouth (190°)14.8 km/h27.8 km/hClear
5:35 AM7 °C4 °C81 %1003.4 hPa16.1 kmSouth (190°)9.3 km/hClear
5:55 AM7 °C4 °C81 %1003.4 hPa16.1 kmSSW (200°)7.4 km/hClear
6:35 AM6 °C4 °C87 %1003.7 hPa16.1 kmSSW (210°)16.7 km/hScattered Clouds
6:55 AM6 °C4 °C87 %1003.7 hPa16.1 kmSSW (200°)9.3 km/hClear
7:15 AM5 °C4 °C93 %1003.7 hPa16.1 kmCalmClear
7:35 AM5 °C4 °C93 %1004.1 hPa16.1 kmSW (220°)7.4 km/hClear
7:55 AM6 °C4 °C87 %1004.1 hPa16.1 kmSouth (190°)11.1 km/hClear
8:15 AM5 °C4 °C93 %1004.1 hPa16.1 kmSouth (180°)13 km/hClear
8:35 AM6 °C4 °C87 %1004.4 hPa16.1 kmSSW (200°)14.8 km/hClear
8:55 AM6 °C3 °C81 %1004.7 hPa16.1 kmSSW (200°)14.8 km/hClear
9:15 AM6 °C4 °C87 %1005.1 hPa16.1 kmSSW (200°)20.4 km/hClear
9:35 AM6 °C3 °C81 %1005.1 hPa16.1 kmSouth (190°)16.7 km/hClear
10:15 AM6 °C3 °C81 %1005.4 hPa16.1 kmSSW (200°)13 km/hClear
10:35 AM6 °C3 °C81 %1005.4 hPa16.1 kmSSW (210°)13 km/hClear
10:55 AM6 °C3 °C81 %1005.4 hPa16.1 kmSSW (200°)14.8 km/hClear
11:15 AM6 °C3 °C81 %1005.8 hPa16.1 kmSouth (180°)7.4 km/hClear
11:35 AM7 °C3 °C76 %1005.4 hPa16.1 kmSouth (180°)9.3 km/hClear
12:15 PM7 °C3 °C76 %1005.4 hPa16.1 kmSouth (180°)9.3 km/hClear
12:35 PM7 °C3 °C76 %1005.8 hPa16.1 kmSouth (170°)5.6 km/hClear
12:55 PM7 °C3 °C76 %1005.4 hPa16.1 kmSouth (170°)7.4 km/hClear
1:15 PM7 °C3 °C76 %1005.8 hPa16.1 kmSSW (200°)18.5 km/hClear
1:35 PM7 °C3 °C76 %1005.8 hPa16.1 kmSSW (200°)18.5 km/hPartly Cloudy
1:55 PM7 °C3 °C76 %1006.4 hPa16.1 kmSSW (200°)14.8 km/hClear
2:15 PM6 °C3 °C81 %1006.8 hPa16.1 kmSSW (200°)11.1 km/hClear
2:35 PM6 °C3 °C81 %1006.8 hPa16.1 kmSouth (170°)7.4 km/hClear
2:55 PM6 °C3 °C81 %1007.1 hPa16.1 kmSSW (200°)13 km/hPartly Cloudy
3:15 PM6 °C3 °C81 %1007.1 hPa16.1 kmSouth (170°)7.4 km/hPartly Cloudy
3:35 PM6 °C2 °C76 %1007.5 hPa16.1 kmSSW (200°)11.1 km/hClear
3:55 PM6 °C2 °C76 %1007.5 hPa16.1 kmSSW (200°)7.4 km/hClear
4:15 PM6 °C1 °C70 %1007.8 hPa16.1 kmSW (230°)13 km/hClear
4:35 PM6 °C1 °C70 %1007.8 hPa16.1 kmSSW (200°)11.1 km/hClear
4:55 PM5 °C1 °C76 %1007.8 hPa16.1 kmSSW (200°)16.7 km/hClear
5:15 PM5 °C1 °C76 %1008.1 hPa16.1 kmSouth (190°)13 km/hClear
5:35 PM5 °C1 °C76 %1008.5 hPa16.1 kmSSW (210°)14.8 km/hClear
5:55 PM5 °C0 °C70 %1008.8 hPa16.1 kmSouth (190°)11.1 km/hClear
6:35 PM5 °C0 °C70 %1009.5 hPa16.1 kmSSW (200°)9.3 km/hClear
6:55 PM5 °C0 °C70 %1009.5 hPa16.1 kmSouth (190°)14.8 km/hClear
7:15 PM4 °C0 °C75 %1009.8 hPa16.1 kmSouth (190°)11.1 km/hClear
7:55 PM4 °C0 °C75 %1010.2 hPa16.1 kmSouth (190°)11.1 km/hClear
8:15 PM4 °C0 °C75 %1010.5 hPa16.1 kmSSW (210°)13 km/hClear
8:35 PM3 °C0 °C81 %1010.8 hPa16.1 kmSSW (200°)14.8 km/hClear
9:15 PM4 °C1 °C81 %1010.8 hPa16.1 kmSSW (210°)14.8 km/hClear
9:35 PM4 °C1 °C81 %1011.2 hPa16.1 kmSSW (200°)16.7 km/hClear
9:55 PM4 °C1 °C81 %1011.9 hPa16.1 kmSSW (200°)14.8 km/hClear
10:15 PM4 °C1 °C81 %1012.2 hPa16.1 kmSSW (200°)14.8 km/hClear
Hourly data recorded from CZBB, located 0 kilometers away from Vancouver, British Columbia







STORIES FROM OUR PARTNERS